Location: Foulognes
(49.1413°N, 0.8183°W)
Time: 22:25:48
(UTC+00:00)

BREEZE-M DEB (TANK) - Pass Details

Date: 21 October 2019
Orbit: 669 x 22260 km, 51.1° (Epoch: 13 November)

Event Time Altitude Azimuth Distance (km) Brightness Sun altitude
Rises 17:58:44 0° 288° (WNW) 3,025 7.5 -9.9°
Reaches altitude 10° 18:00:25 10° 287° (WNW) 2,211 6.6 -10.2°
Maximum altitude 18:04:37 81° 200° (SSW) 1,056 3.7 -10.9°
Drops below altitude 10° 18:16:00 10° 116° (ESE) 5,726 6.9 -12.7°
Enters shadow 18:18:42 - 116° (ESE) 6,849 7.3 -13.2°
